• In Uzbekistan
  • List of Countries
  • For 7 days
  • Water Temperature
  • Satellite Maps
  • Weather Map
  • Weather Widgets
  • user-avatar
    Login

    Hourly Weather Tskhinvali

    Today, 21 June, Thursday

    Time Temperature Precipitation Wind Pressure Humidity
    00:00 +15°C° 0 mm 1 mps 684 mmHg 87%
    01:00 +15°C° 0 mm 1 mps 684 mmHg 86%
    02:00 +15°C° 0 mm 1 mps 683 mmHg 85%
    03:00 +14°C° 0 mm 1 mps 683 mmHg 76%
    04:00 +15°C° 0 mm 1 mps 683 mmHg 73%
    05:00 +16°C° 0 mm 1 mps 684 mmHg 71%
    06:00 +18°C° 0 mm 1 mps 684 mmHg 68%
    07:00 +21°C° 0 mm 1 mps 684 mmHg 62%
    08:00 +23°C° 0 mm 2 mps 684 mmHg 56%
    09:00 +25°C° 0 mm 2 mps 685 mmHg 49%
    10:00 +26°C° 0 mm 2 mps 684 mmHg 46%
    11:00 +27°C° 0 mm 2 mps 684 mmHg 44%
    12:00 +29°C° 0 mm 2 mps 684 mmHg 41%
    13:00 +29°C° 0 mm 2 mps 684 mmHg 41%
    14:00 +29°C° 0 mm 2 mps 684 mmHg 40%
    15:00 +30°C° 0 mm 2 mps 684 mmHg 40%
    16:00 +28°C° 0 mm 2 mps 684 mmHg 45%
    17:00 +27°C° 0 mm 2 mps 684 mmHg 51%
    18:00 +26°C° 0 mm 2 mps 683 mmHg 56%
    19:00 +24°C° 0 mm 1 mps 683 mmHg 63%
    20:00 +22°C° 0 mm 1 mps 683 mmHg 69%
    21:00 +20°C° 0 mm 1 mps 683 mmHg 76%
    22:00 +19°C° 0 mm 1 mps 683 mmHg 77%
    23:00 +19°C° 0 mm 1 mps 683 mmHg 77%

    Tomorrow, 22 June, Friday

    Time Temperature Precipitation Wind Pressure Humidity
    00:00 +18°C° 0 mm 1 mps 683 mmHg 78%
    01:00 +18°C° 0 mm 1 mps 682 mmHg 78%
    02:00 +18°C° 0 mm 1 mps 682 mmHg 78%
    03:00 +18°C° 0 mm 1 mps 682 mmHg 78%
    04:00 +17°C° 0 mm 2 mps 682 mmHg 76%
    05:00 +18°C° 0 mm 2 mps 682 mmHg 74%
    06:00 +19°C° 0 mm 2 mps 682 mmHg 72%
    07:00 +21°C° 0 mm 2 mps 682 mmHg 65%
    08:00 +24°C° 0 mm 3 mps 682 mmHg 58%
    09:00 +26°C° 0 mm 3 mps 682 mmHg 51%
    10:00 +27°C° 0 mm 4 mps 682 mmHg 48%
    11:00 +28°C° 0 mm 4 mps 682 mmHg 45%
    12:00 +29°C° 0 mm 4 mps 682 mmHg 42%
    13:00 +28°C° 0.1 mm 4 mps 682 mmHg 42%
    14:00 +28°C° 0.1 mm 4 mps 681 mmHg 43%
    15:00 +28°C° 0.1 mm 4 mps 681 mmHg 43%
    16:00 +27°C° 0.1 mm 3 mps 681 mmHg 48%
    17:00 +26°C° 0.1 mm 2 mps 681 mmHg 53%
    18:00 +25°C° 0.1 mm 2 mps 681 mmHg 58%
    19:00 +23°C° 0 mm 2 mps 681 mmHg 63%
    20:00 +21°C° 0 mm 1 mps 680 mmHg 67%
    21:00 +20°C° 0 mm 1 mps 680 mmHg 72%
    22:00 +19°C° 0.1 mm 1 mps 680 mmHg 71%
    23:00 +19°C° 0.1 mm 1 mps 680 mmHg 71%

    Day after tomorrow, 23 June, Saturday

    Time Temperature Precipitation Wind Pressure Humidity
    00:00 +19°C° 0.1 mm 1 mps 680 mmHg 71%
    01:00 +18°C° 0 mm 1 mps 680 mmHg 69%
    02:00 +18°C° 0 mm 1 mps 680 mmHg 67%
    03:00 +16°C° 0 mm 1 mps 680 mmHg 64%
    04:00 +18°C° 0 mm 1 mps 680 mmHg 64%
    05:00 +19°C° 0 mm 1 mps 680 mmHg 63%
    06:00 +19°C° 0 mm 1 mps 680 mmHg 62%
    07:00 +20°C° 0 mm 2 mps 681 mmHg 56%
    08:00 +23°C° 0 mm 2 mps 681 mmHg 51%
    09:00 +25°C° 0 mm 3 mps 681 mmHg 46%
    10:00 +26°C° 0 mm 3 mps 681 mmHg 43%
    11:00 +28°C° 0 mm 3 mps 681 mmHg 41%
    12:00 +29°C° 0 mm 3 mps 681 mmHg 39%
    13:00 +29°C° 0.1 mm 3 mps 681 mmHg 41%
    14:00 +28°C° 0.1 mm 3 mps 681 mmHg 42%
    15:00 +28°C° 0.1 mm 3 mps 681 mmHg 44%
    16:00 +27°C° 0.1 mm 2 mps 680 mmHg 52%
    17:00 +25°C° 0.1 mm 2 mps 680 mmHg 60%
    18:00 +23°C° 0.1 mm 2 mps 680 mmHg 68%
    19:00 +22°C° 0.1 mm 1 mps 680 mmHg 72%
    20:00 +21°C° 0.1 mm 1 mps 681 mmHg 76%
    21:00 +19°C° 0.1 mm 1 mps 681 mmHg 80%
    22:00 +19°C° 0 mm 1 mps 681 mmHg 79%
    23:00 +18°C° 0 mm 1 mps 681 mmHg 78%

    24 June, Sunday

    Time Temperature Precipitation Wind Pressure Humidity
    00:00 +18°C° 0 mm 1 mps 681 mmHg 77%
    01:00 +16°C° 0 mm 1 mps 681 mmHg 76%
    02:00 +16°C° 0 mm 1 mps 681 mmHg 75%
    03:00 +16°C° 0 mm 1 mps 681 mmHg 74%
    04:00 +18°C° 0 mm 1 mps 681 mmHg 72%
    05:00 +19°C° 0 mm 1 mps 681 mmHg 70%
    06:00 +20°C° 0 mm 1 mps 682 mmHg 69%
    07:00 +22°C° 0 mm 1 mps 682 mmHg 61%
    08:00 +24°C° 0 mm 1 mps 682 mmHg 53%
    09:00 +27°C° 0 mm 2 mps 683 mmHg 45%
    10:00 +28°C° 0 mm 2 mps 683 mmHg 43%
    11:00 +29°C° 0 mm 2 mps 683 mmHg 41%
    12:00 +30°C° 0 mm 3 mps 683 mmHg 39%
    13:00 +30°C° 0.1 mm 3 mps 683 mmHg 39%
    14:00 +30°C° 0.1 mm 3 mps 683 mmHg 40%
    15:00 +30°C° 0.1 mm 3 mps 683 mmHg 41%
    16:00 +29°C° 0.6 mm 3 mps 683 mmHg 50%
    17:00 +27°C° 0.6 mm 3 mps 683 mmHg 59%
    18:00 +26°C° 0.6 mm 2 mps 683 mmHg 67%
    19:00 +24°C° 0.3 mm 2 mps 683 mmHg 73%
    20:00 +21°C° 0.3 mm 2 mps 683 mmHg 79%
    21:00 +20°C° 0.3 mm 1 mps 683 mmHg 85%
    22:00 +20°C° 0 mm 1 mps 683 mmHg 85%
    23:00 +19°C° 0 mm 1 mps 683 mmHg 85%

    25 June, Monday

    Time Temperature Precipitation Wind Pressure Humidity
    00:00 +19°C° 0 mm 1 mps 683 mmHg 85%
    01:00 +18°C° 0 mm 1 mps 683 mmHg 84%
    02:00 +18°C° 0 mm 1 mps 683 mmHg 83%
    03:00 +18°C° 0 mm 1 mps 683 mmHg 82%
    04:00 +19°C° 0 mm 1 mps 683 mmHg 78%
    05:00 +20°C° 0 mm 1 mps 684 mmHg 75%
    06:00 +21°C° 0 mm 1 mps 684 mmHg 71%
    07:00 +23°C° 0 mm 1 mps 684 mmHg 63%
    08:00 +26°C° 0 mm 1 mps 685 mmHg 55%
    09:00 +28°C° 0 mm 1 mps 685 mmHg 47%
    10:00 +29°C° 0 mm 2 mps 685 mmHg 44%
    11:00 +31°C° 0 mm 2 mps 685 mmHg 41%
    12:00 +33°C° 0 mm 3 mps 685 mmHg 38%
    13:00 +33°C° 0 mm 3 mps 685 mmHg 37%
    14:00 +33°C° 0 mm 3 mps 685 mmHg 36%
    15:00 +34°C° 0 mm 3 mps 685 mmHg 35%
    16:00 +33°C° 0 mm 3 mps 685 mmHg 40%
    17:00 +31°C° 0 mm 3 mps 684 mmHg 44%
    18:00 +30°C° 0 mm 2 mps 684 mmHg 49%
    19:00 +27°C° 0.1 mm 2 mps 684 mmHg 58%
    20:00 +24°C° 0.1 mm 2 mps 684 mmHg 67%
    21:00 +21°C° 0.1 mm 1 mps 684 mmHg 75%
    22:00 +21°C° 0 mm 1 mps 684 mmHg 74%
    23:00 +20°C° 0 mm 1 mps 684 mmHg 72%

    26 June, Tuesday

    Time Temperature Precipitation Wind Pressure Humidity
    00:00 +20°C° 0 mm 1 mps 684 mmHg 70%
    01:00 +20°C° 0 mm 1 mps 683 mmHg 66%
    02:00 +19°C° 0 mm 1 mps 683 mmHg 61%
    03:00 +19°C° 0 mm 1 mps 683 mmHg 57%
    04:00 +20°C° 0 mm 1 mps 683 mmHg 55%
    05:00 +20°C° 0 mm 2 mps 683 mmHg 53%
    06:00 +21°C° 0 mm 2 mps 683 mmHg 51%
    07:00 +24°C° 0 mm 2 mps 684 mmHg 46%
    08:00 +27°C° 0 mm 3 mps 684 mmHg 42%
    09:00 +29°C° 0 mm 3 mps 684 mmHg 37%
    10:00 +30°C° 0 mm 4 mps 684 mmHg 36%
    11:00 +32°C° 0 mm 4 mps 683 mmHg 35%
    12:00 +34°C° 0 mm 5 mps 683 mmHg 34%
    13:00 +34°C° 0 mm 5 mps 683 mmHg 33%
    14:00 +34°C° 0 mm 5 mps 683 mmHg 33%
    15:00 +35°C° 0 mm 4 mps 683 mmHg 32%
    16:00 +34°C° 0 mm 4 mps 683 mmHg 35%
    17:00 +33°C° 0 mm 4 mps 682 mmHg 38%
    18:00 +31°C° 0 mm 3 mps 682 mmHg 41%
    19:00 +28°C° 0 mm 3 mps 682 mmHg 46%
    20:00 +25°C° 0 mm 2 mps 682 mmHg 51%
    21:00 +23°C° 0 mm 2 mps 682 mmHg 57%
    22:00 +21°C° 0 mm 2 mps 682 mmHg 56%
    23:00 +20°C° 0 mm 2 mps 682 mmHg 55%
    Show more